Location: McFarlands Corners
(41.4117°N, 81.3382°W)
Time: 17:07:28
(UTC+00:00)

Vanguard 1 Rocket - Pass Details

Date: 24 February 2026
Orbit: 653 x 4214 km, 34.3° (Epoch: 8 March)

Event Time Altitude Azimuth Distance (km) Brightness Sun altitude
Rises 18:49:05 0° 256° (WSW) 3,907 11.1 36.8°
Reaches altitude 10° 18:51:16 10° 252° (WSW) 3,214 10.8 36.7°
Maximum altitude 18:59:21 61° 174° (S) 2,080 10.4 36.0°
Drops below altitude 10° 19:15:24 10° 100° (E) 6,047 11.5 34.7°
Sets 19:21:18 0° 98° (E) 7,570 11.9 34.1°
